Home   Weather   Chula Vista   Past weeks

Flag for USA Past Weather in Chula Vista, California, USA — Yesterday and Last 2 Weeks

Now
74 °F

Sunny.


Feels Like: 76 °F
Forecast: 66 / 76 °F
Wind: 9 mph from Northwest

Location: Brown Field Municipal Airport

Current Time: Jul 21, 2017 at 5:58:01 pm

Latest Report: Jul 21, 2017 at 4:53 pm


Visibility: 10 mi

Pressure: 29.88 "Hg

Humidity: 69%

Dew Point: 63 °F

Location of Chula VistaLocation

Past Weather in Chula Vista — Graph

°F

Chula Vista Temperature Yesterday

Maximum temperature yesterday: 79 °F (at 11:53 am)
Minimum temperature yesterday: 65 °F (at 11:53 pm)
Average temperature yesterday: 71 °F

High & Low Weather Summary for the Past Weeks

 TemperatureHumidityPressure
High86 °F (Jul 7, 1:53 pm)100% (Jul 10, 4:37 am)30.03 "Hg (Jul 10, 4:37 am)
Low63 °F (Jul 16, 3:53 am)40% (Jul 7, 1:53 pm)29.79 "Hg (Jul 8, 2:53 am)
Average72 °F79%29.92 "Hg
* Reported Jul 6 3:53 pm — Jul 21 3:53 pm, Chula Vista. Weather by CustomWeather, © 2017

Note: Actual official high and low records may vary slightly from our data, if they occured in-between our weather recording intervals... More about our weather records

Advertising

Chula Vista Weather History for the Previous 24 Hours

Scroll right to see more
 ConditionsComfort  
Time TempWeatherWind HumidityBarometerVisibility
3:53 pm
Fri, Jul 21
77 °FSunny.7 mph62%29.89 "Hg10 mi
2:53 pm78 °FSunny.7 mph60%29.90 "Hg10 mi
1:53 pm78 °FSunny.9 mph60%29.92 "Hg10 mi
12:53 pm77 °FSunny.9 mph62%29.93 "Hg10 mi
11:53 am77 °FSunny.7 mph62%29.96 "Hg10 mi
10:53 am77 °FSunny.5 mph62%29.96 "Hg9 mi
9:53 am75 °FSunny.3 mph66%29.96 "Hg7 mi
8:53 am71 °FScattered clouds.No wind76%29.97 "Hg7 mi
8:22 am70 °FPartly sunny.No wind79%29.98 "Hg6 mi
7:53 am67 °FFog.No wind87%29.96 "Hg6 mi
7:06 am66 °FLow clouds.No wind90%29.96 "Hg7 mi
6:42 am66 °FLow clouds.No wind90%29.96 "Hg8 mi
5:53 am66 °FLow clouds.No wind90%29.93 "Hg10 mi
5:31 am66 °FLow clouds.No wind90%29.94 "Hg8 mi
4:53 am66 °FLow clouds.No wind90%29.92 "Hg9 mi
3:53 am66 °FLow clouds.No wind90%29.92 "Hg9 mi
2:53 am66 °FLow clouds.No wind90%29.93 "Hg8 mi
2:25 am65 °FLow clouds.No wind94%29.94 "Hg8 mi
2:08 am66 °FLow clouds.No wind90%29.95 "Hg8 mi
1:14 am65 °FPassing clouds.No wind91%29.96 "Hg10 mi
12:53 am65 °FPassing clouds.No wind91%29.95 "Hg9 mi
11:53 pm
Thu, Jul 20
65 °FClear.3 mph94%29.96 "Hg10 mi
10:53 pm66 °FClear.No wind90%29.96 "Hg9 mi
9:53 pm67 °FPassing clouds.3 mph87%29.97 "Hg10 mi
9:38 pm67 °FPassing clouds.6 mph87%29.98 "Hg10 mi
9:06 pm67 °FPassing clouds.3 mph90%29.98 "Hg10 mi
8:53 pm67 °FClear.6 mph90%29.96 "Hg10 mi
7:53 pm69 °FSunny.6 mph81%29.95 "Hg10 mi
6:53 pm74 °FSunny.7 mph69%29.94 "Hg10 mi
5:53 pm77 °FSunny.6 mph62%29.93 "Hg10 mi
Weather by CustomWeather, © 2017

See weather overviewHow to use our weather pages